Location: Igri�s
(42.2144°N, 0.4320°W)
Time: 09:49:12
(UTC+00:00)

Cosmos 1153 Rocket - Pass Details

Date: 13 August 2020
Orbit: 954 x 1005 km, 82.9° (Epoch: 18 September)

Event Time Altitude Azimuth Distance (km) Brightness Sun altitude
Exits shadow 21:29:36 29° 192° (SSW) 1,682 5.4 -23.0°
Maximum altitude 21:32:58 82° 277° (W) 973 4.4 -23.4°
Drops below altitude 10° 21:39:11 10° 6° (N) 2,713 7.4 -24.1°
Sets 21:41:42 0° 7° (N) 3,670 8.1 -24.4°
